sat.trackr.live / text

‹ back to catalog

VIASAT-1

NORAD 37843 · 2011-059A

PAYLOAD ACTIVE UNKNOWN

§ Identity

Operator
Country
US
Launch date
2011-10-19
Launch site
TYMSC
Launch vehicle
Mass (kg)
RCS (m²)
3.98

Purposes: comms

External: N2YO · Heavens-Above · Gunter

§ Orbital elements

Epoch: 2026-05-25T01:29:10.091904Z

Period
1,436.09 min
Inclination
0.0173°
Eccentricity
0.0002359
Mean motion
1.00272393 rev/d
Perigee alt
35,776.5 km
Apogee alt
35,796.4 km
Semi-major
42,164.6 km
B*
0.0000e+0
RAAN
297.2221°
Arg perigee
125.0687°
Mean anomaly
87.5555°
Rev number
4,709

§ Raw data

VIASAT-11 37843U 11059A   26145.06192236 -.00000026  00000+0  00000+0 0  99952 37843   0.0173 297.2221 0002359 125.0687  87.5555  1.00272393 47093

JSON: /api/v1/satellites/37843 · /tle

For live sub-satellite position, see the globe view (requires WebGL).

§ Visibility from observer

Set your observer location to see the next 7 days of passes ≥ 10°. The values pass through the URL so the page stays shareable.

No JS? Fill the form by hand. The geolocation button needs JavaScript.